"Pseudo-MPEC" for P12oTfr

Created 2026 Aug 6 22:35:09 UT using Find_Orb

Click here for an explanation of pseudo-MPECs

 
 Astrometry: 
     P12oTfr 0C2026 08 03.48306023 00 35.191-25 43 52.67   ~86Gox19.96GVNEOCPF51
     P12oTfr 0C2026 08 03.50285523 00 19.791-25 40 50.70   ~86Go 20.03GVNEOCPF51
     P12oTfr 0C2026 08 03.51261823 00 12.141-25 39 19.93   ~86Go 19.70GVNEOCPF51
     P12oTfr 0C2026 08 03.52258023 00 04.293-25 37 46.56   ~86Go 18.23GVNEOCPF51
     P12oTfr*0C2026 08 06.47942422 11 44.957-14 11 19.47   ~86DZ 18.91wXNEOCPF51
     P12oTfr 0C2026 08 06.50211122 11 14.452-14 03 46.21   ~86DZ 18.94wXNEOCPF51
     P12oTfr 0C2026 08 06.51346322 10 59.127-13 59 57.89   ~86DZ 18.96wXNEOCPF51
     P12oTfr KB2026 08 06.59930922 09 13.555-13 31 21.72   ~86FZ 18.8 GWNEOCP900
     P12oTfr KB2026 08 06.60400722 09 07.048-13 29 45.49   ~86F5 19.1 GXNEOCPQ06
     P12oTfr KB2026 08 06.60891322 09 00.482-13 28 05.05   ~86FZ 18.6 GWNEOCP900
     P12oTfr KB2026 08 06.60964522 08 59.446-13 27 49.99   ~86F5 18.4 GXNEOCPQ06
     P12oTfr KB2026 08 06.61851822 08 47.402-13 24 48.13   ~86FZ 18.5 GWNEOCP900
     P12oTfr KB2026 08 06.91579522 02 08.176-11 38 53.29   ~86MZ 18.41GXNEOCP126
     P12oTfr KB2026 08 06.92182322 01 59.542-11 36 39.61   ~86MZ 18.33GXNEOCP126
     P12oTfr KB2026 08 06.92431122 01 55.392-11 35 48.88   ~86MZ 18.8 GXNEOCP595
     P12oTfr KB2026 08 06.92629622 01 52.586-11 35 04.99   ~86MZ 18.1 GXNEOCP595
     P12oTfr KB2026 08 06.92781722 01 50.930-11 34 26.57   ~86MZ 18.16GXNEOCP126

Station data:
(126) Monte Viseggi  (N44.132565 E9.790150)  Italy.
   Observers L. Sannino, A. Mancuso, S. Mercanti, D. Agnetti. Measurers L.
   Sannino, A. Mancuso. 0.41-m f/5.3 reflector + CCD.
(595) Farra d'Isonzo  (N45.915731 E13.525780)  Italy.  Observers S. Aschi, E.
   Pettarin, G. Panterotto. Measurers S. Aschi, E. Pettarin. 0.40-m f/5.15
   reflector + CCD.
(900) Moriyama  (N35.049753 E135.989940)  Japan.  Observer Y. Ikari. 0.26-m
   f/7.0 reflector + CCD.
(F51) Pan-STARRS 1, Haleakala  (N20.707234 W156.255910)  US/Hawaii.
   Observers J. Herman, T. Lowe, P. Minguez, A. Schultz, I. Smith. Measurers
   K. Chambers, T. de Boer, J. Fairlamb, H. Gao, M. Huber, C.-C. Lin, E.
   Magnier, Y. Ramanjooloo, R. Wainscoat, R. Weryk. 1.8-m Ritchey-Chrétien +
   CCD.
(Q06) Tarui Observatory, Tarui  (N35.394791 E136.495470)  Japan.  Observer H.
   Watanabe. 0.35-m f/1.9 Schmidt-Cassegrain + CMO.

Orbital elements:  P12oTfr
   Perihelion 2026 Oct 31.587454 +/- 0.173 TT = 14:05:56.0 (JD 2461345.087454)
Epoch 2026 Aug  6.0 TT = JDT 2461258.5   Earth MOID: 0.0420   Ve: 0.0735
M 265.484120315 +/- 0.38            (J2000 ecliptic)             AutoNEOCP
n   1.091565521 +/- 0.00225         Peri.  131.253850 +/- 0.17
a   0.934192069 +/- 0.00128         Node   314.759774 +/- 0.0039
e   0.36463991 +/- 0.00109          Incl.   29.698046 +/- 0.18
P   0.903/329.795d         H 24.06  G  0.15   U  8.7
q 0.593548352 +/- 0.0002    Q 1.274835786 +/- 0.00277
16 of 17 observations 2026 Aug. 3-6; mean residual 0".32
Residuals in arcseconds: 
260803 F51( 1.1-  1.1+)   260806 F51  .09-  .02+    260806 126  .22+  .19+    
260803 F51  .03-  .00     260806 900  .04+  .05-    260806 126  .00   .34+    
260803 F51  .11+  .11-    260806 Q06  .47-  .81+    260806 595  .25-  .43-    
260803 F51  .09-  .12+    260806 900  .13-  .01-    260806 595  .33+  .61-    
260806 F51  .06+  .13-    260806 Q06  .57+  .77+    260806 126  .36-  .37+    
260806 F51  .14+  .20-    260806 900  .14+  .34-    

Ephemerides (geocentric):
Date (UTC) HH   RA             Dec           delta  r     elong  mag " sig PA
---- --------  ------------   ------------  ------ ------ -----  --- --------
2026 08 06 23  22 01 04.201   -11 20 52.13  .05323 1.0659 165.7 18.6 .911 157
2026 08 07 00  22 00 05.708   -11 05 11.36  .05297 1.0656 165.9 18.6 .957 156
2026 08 07 01  21 59 06.757   -10 49 20.92  .05272 1.0654 166.0 18.6 1.01 155
2026 08 07 02  21 58 07.346   -10 33 20.77  .05247 1.0652 166.2 18.6 1.06 154
2026 08 07 03  21 57 07.471   -10 17 10.83  .05223 1.0650 166.3 18.5 1.11 153
2026 08 07 04  21 56 07.129   -10 00 51.08  .05198 1.0648 166.4 18.5 1.16 152
2026 08 07 05  21 55 06.319   -09 44 21.47  .05174 1.0645 166.5 18.5 1.22 151
2026 08 07 06  21 54 05.036   -09 27 41.95  .05150 1.0643 166.6 18.5 1.28 150
2026 08 07 07  21 53 03.278   -09 10 52.48  .05126 1.0641 166.7 18.5 1.34 149
2026 08 07 08  21 52 01.042   -08 53 53.03  .05103 1.0639 166.8 18.5 1.40 149
2026 08 07 09  21 50 58.326   -08 36 43.58  .05079 1.0637 166.9 18.5 1.47 148
2026 08 07 10  21 49 55.127   -08 19 24.08  .05056 1.0634 167.0 18.5 1.53 147
2026 08 07 11  21 48 51.442   -08 01 54.51  .05034 1.0632 167.0 18.4 1.60 147
2026 08 07 12  21 47 47.268   -07 44 14.87  .05011 1.0630 167.0 18.4 1.67 146
2026 08 07 13  21 46 42.603   -07 26 25.12  .04989 1.0628 167.1 18.4 1.75 146
2026 08 07 14  21 45 37.445   -07 08 25.25  .04967 1.0626 167.1 18.4 1.82 145
2026 08 07 15  21 44 31.791   -06 50 15.27  .04945 1.0623 167.1 18.4 1.90 145
2026 08 07 16  21 43 25.639   -06 31 55.16  .04923 1.0621 167.0 18.4 1.98 144
2026 08 07 17  21 42 18.986   -06 13 24.92  .04902 1.0619 167.0 18.4 2.07 144
2026 08 07 18  21 41 11.829   -05 54 44.58  .04881 1.0617 167.0 18.4 2.15 143
2026 08 07 19  21 40 04.168   -05 35 54.12  .04860 1.0615 166.9 18.4 2.24 143
2026 08 07 20  21 38 55.999   -05 16 53.59  .04839 1.0612 166.8 18.4 2.33 143
2026 08 07 21  21 37 47.321   -04 57 42.98  .04819 1.0610 166.7 18.4 2.42 142
2026 08 07 22  21 36 38.132   -04 38 22.35  .04799 1.0608 166.6 18.3 2.52 142
2026 08 07 23  21 35 28.429   -04 18 51.71  .04779 1.0606 166.5 18.3 2.61 142
2026 08 08 00  21 34 18.210   -03 59 11.12  .04760 1.0604 166.4 18.3 2.71 142
2026 08 08 01  21 33 07.475   -03 39 20.61  .04741 1.0601 166.2 18.3 2.81 141
2026 08 08 02  21 31 56.221   -03 19 20.24  .04722 1.0599 166.0 18.3 2.92 141
2026 08 08 03  21 30 44.447   -02 59 10.07  .04704 1.0597 165.8 18.3 3.03 141
2026 08 08 04  21 29 32.151   -02 38 50.17  .04685 1.0595 165.7 18.3 3.13 141
2026 08 08 05  21 28 19.332   -02 18 20.61  .04667 1.0592 165.4 18.3 3.25 140
2026 08 08 06  21 27 05.988   -01 57 41.47  .04650 1.0590 165.2 18.3 3.36 140
2026 08 08 07  21 25 52.119   -01 36 52.84  .04632 1.0588 165.0 18.3 3.48 140
2026 08 08 08  21 24 37.723   -01 15 54.81  .04615 1.0586 164.7 18.3 3.59 140
2026 08 08 09  21 23 22.799   -00 54 47.49  .04599 1.0584 164.5 18.3 3.71 139
2026 08 08 10  21 22 07.346   -00 33 30.98  .04582 1.0581 164.2 18.3 3.84 139
2026 08 08 11  21 20 51.364   -00 12 05.41  .04566 1.0579 163.9 18.3 3.96 139
2026 08 08 12  21 19 34.852   +00 09 29.10  .04550 1.0577 163.6 18.3 4.09 139
2026 08 08 13  21 18 17.809   +00 31 12.42  .04535 1.0575 163.3 18.3 4.22 139
2026 08 08 14  21 17 00.235   +00 53 04.41  .04520 1.0572 162.9 18.3 4.35 139
2026 08 08 15  21 15 42.130   +01 15 04.91  .04505 1.0570 162.6 18.3 4.49 138
2026 08 08 16  21 14 23.493   +01 37 13.77  .04491 1.0568 162.3 18.3 4.63 138
2026 08 08 17  21 13 04.325   +01 59 30.82  .04476 1.0566 161.9 18.3 4.76 138
2026 08 08 18  21 11 44.626   +02 21 55.89  .04463 1.0564 161.5 18.4 4.91 138
2026 08 08 19  21 10 24.396   +02 44 28.80  .04449 1.0561 161.2 18.4 5.05 138
2026 08 08 20  21 09 03.636   +03 07 09.35  .04436 1.0559 160.8 18.4 5.19 138
2026 08 08 21  21 07 42.345   +03 29 57.34  .04423 1.0557 160.4 18.4 5.34 138
2026 08 08 22  21 06 20.526   +03 52 52.57  .04411 1.0555 160.0 18.4 5.49 138